Date Time,Air Temp,Sky Temp,Clarity,Light Level,Rain Sensor,Readings
2013-11-05 00:00:13,19.5,-2.4,21.9,0.1,2.6,111
2013-11-05 00:05:13,19.6,-2.3,21.9,0.1,2.7,112
2013-11-05 00:10:13,19.7,-2.8,22.4,0.0,2.7,112
2013-11-05 00:15:13,19.6,-1.1,20.8,0.0,2.5,111
2013-11-05 00:20:13,17.0,0.2,16.8,0.1,2.3,112
2013-11-05 00:25:13,15.6,0.4,15.2,0.0,2.3,111
2013-11-05 00:30:13,15.2,-0.1,15.3,0.0,2.3,112
2013-11-05 00:35:14,15.0,-0.1,15.1,0.0,2.4,112
2013-11-05 00:40:14,14.9,-0.9,15.8,0.0,2.3,112
2013-11-05 00:45:14,14.9,-2.5,17.5,0.0,2.4,111
2013-11-05 00:50:14,14.9,-2.5,17.4,0.0,2.4,112
2013-11-05 00:55:14,14.8,1.2,13.6,0.1,2.3,111
2013-11-05 01:00:14,14.9,1.4,13.5,0.1,2.3,111
2013-11-05 01:05:14,14.8,1.7,13.1,0.0,2.3,111
2013-11-05 01:10:14,14.7,0.6,14.1,0.0,2.3,111
2013-11-05 01:15:14,14.8,2.4,12.4,0.0,2.3,111
2013-11-05 01:20:14,14.8,2.2,12.6,0.0,2.3,111
2013-11-05 01:25:14,14.9,1.7,13.1,0.0,2.3,111
2013-11-05 01:30:14,14.8,2.0,12.8,0.1,2.3,111
2013-11-05 01:35:14,14.8,0.9,13.9,0.1,2.3,111
2013-11-05 01:40:14,14.8,2.0,12.9,0.1,2.3,112
2013-11-05 01:45:14,14.9,3.0,11.9,0.1,2.3,111
2013-11-05 01:50:14,15.0,3.1,11.8,0.1,2.3,111
2013-11-05 01:55:14,15.1,3.6,11.5,0.1,3.1,111
2013-11-05 02:00:14,15.1,2.7,12.4,0.1,4.5,112
2013-11-05 02:05:14,15.0,2.8,12.2,0.1,5.7,111
2013-11-05 02:10:14,14.9,2.2,12.7,0.1,15.0,111
2013-11-05 02:15:14,14.5,2.5,12.0,0.0,3.4,111
2013-11-05 02:20:14,14.7,3.0,11.6,0.0,2.7,111
2013-11-05 02:25:14,14.7,4.5,10.1,0.0,2.7,112
2013-11-05 02:30:14,14.7,5.1,9.6,0.0,2.6,112
2013-11-05 02:35:14,14.8,5.5,9.3,0.0,2.7,112
2013-11-05 02:40:14,15.1,5.8,9.3,0.0,3.3,111
2013-11-05 02:45:14,15.2,6.9,8.3,0.0,16.8,112
2013-11-05 02:50:14,15.2,13.6,1.5,0.0,30.5,111
2013-11-05 02:55:14,15.5,15.6,-0.1,0.0,24.9,112
2013-11-05 03:00:14,15.8,14.5,1.3,0.0,31.9,111
2013-11-05 03:05:14,15.8,14.3,1.4,0.0,23.7,111
2013-11-05 03:10:14,15.9,12.3,3.5,0.0,6.1,111
2013-11-05 03:15:14,15.6,12.0,3.7,0.0,10.5,112
2013-11-05 03:20:14,15.7,12.5,3.2,0.0,13.0,111
2013-11-05 03:25:14,15.8,12.0,3.7,0.0,2.7,111
2013-11-05 03:30:14,15.6,12.2,3.4,0.0,4.3,111
2013-11-05 03:35:14,15.8,13.3,2.5,0.0,15.0,112
2013-11-05 03:40:14,16.0,14.4,1.6,0.0,16.9,111
2013-11-05 03:45:14,16.2,12.6,3.6,0.0,5.2,112
2013-11-05 03:50:14,16.2,9.2,7.0,0.0,3.5,111
2013-11-05 03:55:14,16.2,7.1,9.1,0.0,4.6,112
2013-11-05 04:00:14,16.3,6.7,9.6,0.0,3.4,111
2013-11-05 04:05:14,16.3,6.7,9.6,0.0,6.1,112
2013-11-05 04:10:14,16.3,5.9,10.4,0.0,2.5,112
2013-11-05 04:15:14,16.2,6.4,9.8,0.0,2.3,112
2013-11-05 04:20:14,16.2,4.3,11.9,0.0,4.9,111
2013-11-05 04:25:14,16.4,3.0,13.3,0.0,9.8,112
2013-11-05 04:30:14,16.5,3.6,12.9,0.1,4.8,112
2013-11-05 04:35:14,16.5,3.8,12.8,0.1,8.5,111
2013-11-05 04:40:14,16.7,5.0,11.7,0.1,15.8,112
2013-11-05 04:45:14,16.9,8.1,8.7,0.1,18.0,111
2013-11-05 04:50:14,16.8,7.8,9.1,0.0,24.0,112
2013-11-05 04:55:14,16.9,6.9,10.1,0.0,19.2,111
2013-11-05 05:00:14,16.9,7.3,9.6,0.0,13.8,111
2013-11-05 05:05:14,16.9,6.5,10.4,0.0,25.0,112
2013-11-05 05:10:14,16.7,6.0,10.7,0.0,29.4,112
2013-11-05 05:15:14,16.4,5.4,11.0,0.0,28.0,111
2013-11-05 05:20:14,16.5,6.5,10.1,0.0,7.8,112
2013-11-05 05:25:14,16.5,6.9,9.7,0.1,9.5,111
2013-11-05 05:30:14,16.5,6.8,9.7,0.1,10.2,112
2013-11-05 05:35:14,16.4,5.4,11.0,0.1,6.8,111
2013-11-05 05:40:14,16.3,3.8,12.5,0.1,9.3,112
2013-11-05 05:45:14,16.3,3.3,13.0,0.1,8.1,111
2013-11-05 05:50:14,16.2,2.4,13.9,0.1,4.1,111
2013-11-05 05:55:14,16.1,2.3,13.8,0.2,3.5,111
2013-11-05 06:00:14,16.1,0.7,15.4,0.2,2.7,111
2013-11-05 06:05:14,16.1,0.4,15.7,0.3,2.6,111
2013-11-05 06:10:14,16.0,0.7,15.3,0.3,2.6,111
2013-11-05 06:15:14,16.1,2.3,13.8,0.5,2.6,111
2013-11-05 06:20:14,16.2,2.6,13.6,0.8,2.7,112
2013-11-05 06:25:14,16.2,2.0,14.2,1.7,2.6,111
2013-11-05 06:30:14,16.2,3.0,13.2,2.8,2.6,111
2013-11-05 06:35:14,16.2,3.5,12.7,5.1,3.3,111
2013-11-05 06:40:14,16.3,3.6,12.7,9.2,3.6,111
2013-11-05 06:45:14,16.4,3.1,13.2,13.3,6.0,111
2013-11-05 06:50:14,16.4,4.0,12.3,17.0,6.6,111
2013-11-05 06:55:14,16.4,3.5,13.0,22.2,12.5,111
2013-11-05 07:00:14,16.4,3.3,13.1,24.7,10.6,112
2013-11-05 07:05:14,16.5,3.7,12.9,26.5,11.0,111
2013-11-05 07:10:14,16.5,2.9,13.5,27.4,13.3,112
2013-11-05 07:15:14,16.4,3.2,13.2,28.6,10.7,111
2013-11-05 07:20:14,16.5,7.2,9.3,29.7,7.7,112
2013-11-05 07:25:14,16.4,7.8,8.7,30.1,7.4,112
2013-11-05 07:30:14,16.4,8.4,8.1,30.2,6.4,111
2013-11-05 07:35:14,16.4,9.1,7.3,30.8,5.5,111
2013-11-05 07:40:14,16.4,9.0,7.4,31.0,8.3,112
2013-11-05 07:45:14,16.5,8.9,7.6,31.1,15.0,111
2013-11-05 07:50:14,16.7,8.8,7.9,31.4,10.3,112
2013-11-05 07:55:14,16.7,7.5,9.1,31.5,8.9,111
2013-11-05 08:00:14,16.7,7.8,9.0,31.7,18.4,111
2013-11-05 08:05:14,16.9,8.7,8.2,31.8,16.7,112
2013-11-05 08:10:14,16.9,8.7,8.2,31.9,13.1,111
2013-11-05 08:15:14,16.9,8.0,8.9,31.9,16.1,111
2013-11-05 08:20:14,16.9,6.2,10.8,31.9,12.9,112
2013-11-05 08:25:14,16.9,7.2,9.8,32.0,15.7,111
2013-11-05 08:30:14,17.0,6.9,10.1,31.9,15.7,112
2013-11-05 08:35:14,17.0,6.4,10.6,32.0,20.4,111
2013-11-05 08:40:14,17.0,6.0,11.0,32.0,19.8,112
2013-11-05 08:45:14,17.0,6.6,10.4,32.0,13.8,111
2013-11-05 08:50:14,17.0,6.9,10.0,32.0,13.5,112
2013-11-05 08:55:14,16.9,5.5,11.4,32.0,11.3,111
2013-11-05 09:00:14,16.9,5.9,11.0,32.1,11.8,112
2013-11-05 09:05:14,16.9,5.7,11.3,32.1,14.4,111
2013-11-05 09:10:14,16.9,6.9,10.0,32.0,13.5,112
2013-11-05 09:15:14,16.9,8.7,8.3,32.1,8.7,111
2013-11-05 09:20:14,16.9,8.2,8.7,32.0,7.9,111
2013-11-05 09:25:14,16.9,8.7,8.2,32.0,9.7,112
2013-11-05 09:30:14,16.8,5.3,11.5,32.0,6.5,111
2013-11-05 09:35:14,16.8,3.5,13.3,32.0,5.7,112
2013-11-05 09:40:14,16.8,3.7,13.2,32.0,8.6,112
2013-11-05 09:45:14,16.6,7.3,9.3,32.0,26.7,111
2013-11-05 09:50:14,16.9,7.6,9.3,32.1,14.6,111
2013-11-05 09:55:14,16.9,8.1,8.8,32.2,3.4,112
2013-11-05 10:00:14,16.9,9.1,7.8,32.3,2.9,111
2013-11-05 10:05:14,16.9,7.6,9.2,32.2,2.3,112
2013-11-05 10:10:14,16.9,5.3,11.6,32.2,2.3,111
2013-11-05 10:15:14,17.0,5.6,11.4,32.0,2.3,112
2013-11-05 10:20:14,17.0,6.0,11.0,32.2,2.3,112
2013-11-05 10:25:14,17.1,5.6,11.5,32.2,2.6,111
2013-11-05 10:30:14,17.2,3.8,13.4,32.2,13.7,112
2013-11-05 10:35:14,17.1,4.0,13.1,32.2,4.4,111
2013-11-05 10:40:14,17.2,4.0,13.1,32.4,2.7,111
2013-11-05 10:45:14,17.2,3.3,13.9,32.4,2.6,112
2013-11-05 10:50:14,17.5,3.4,14.1,32.5,2.4,111
2013-11-05 10:55:14,17.7,3.0,14.7,32.5,2.3,112
2013-11-05 11:00:14,18.4,-0.8,19.2,32.6,2.3,112
2013-11-05 11:05:14,21.9,-4.8,26.7,32.6,2.3,111
2013-11-05 11:10:14,23.5,-5.8,29.3,32.6,2.3,112
2013-11-05 11:15:14,24.1,-4.0,28.1,32.6,2.3,112
2013-11-05 11:20:14,24.5,2.8,21.7,32.5,2.4,111
2013-11-05 11:25:14,24.1,3.6,20.4,32.5,2.4,111
2013-11-05 11:30:14,21.2,3.8,17.4,32.5,2.4,112
2013-11-05 11:35:14,19.7,1.9,17.8,32.5,2.4,111
2013-11-05 11:40:14,19.2,1.5,17.6,32.5,2.3,111
2013-11-05 11:45:14,19.3,-0.6,19.9,32.5,2.2,111
2013-11-05 11:50:14,21.9,-6.0,27.8,32.5,2.5,112
2013-11-05 11:55:14,23.2,-5.5,28.7,32.6,2.3,111
2013-11-05 12:00:14,24.6,-6.4,30.9,32.6,2.4,112
2013-11-05 12:05:14,25.2,-6.4,31.6,32.6,2.3,111
2013-11-05 12:10:14,25.1,-10.3,35.4,32.6,2.3,112
2013-11-05 12:15:14,23.9,-6.7,30.6,32.5,2.4,111
2013-11-05 12:20:14,23.8,-5.2,29.0,32.5,2.4,112
2013-11-05 12:25:14,23.6,-2.6,26.2,32.5,2.3,111
2013-11-05 12:30:14,23.4,-0.4,23.9,32.5,2.3,111
2013-11-05 12:35:14,23.4,-0.5,23.9,32.5,2.3,112
2013-11-05 12:40:14,23.5,-3.0,26.6,32.5,2.3,111
2013-11-05 12:45:14,23.6,-3.8,27.3,32.5,2.3,112
2013-11-05 12:50:14,23.5,-2.2,25.6,32.5,2.3,112
2013-11-05 12:55:14,23.2,-1.0,24.2,32.5,2.3,112
2013-11-05 13:00:14,23.0,-4.9,27.8,32.5,2.3,111
2013-11-05 13:05:14,23.0,-5.1,28.2,32.5,2.3,112
2013-11-05 13:10:14,23.0,-10.9,33.9,32.5,2.3,111
2013-11-05 13:15:14,22.8,-9.6,32.4,32.5,2.3,112
2013-11-05 13:20:14,22.6,-8.6,31.2,32.5,2.3,112
2013-11-05 13:25:14,22.5,-11.0,33.6,32.5,2.3,112
2013-11-05 13:30:14,22.4,-11.5,34.0,32.5,2.3,111
2013-11-05 13:35:14,22.4,-11.5,33.9,32.5,2.3,111
2013-11-05 13:40:14,22.7,-9.3,32.0,32.6,2.3,112
2013-11-05 13:45:14,23.4,-9.1,32.6,32.6,2.3,112
2013-11-05 13:50:14,23.8,-5.8,29.6,32.6,2.3,111
2013-11-05 13:55:14,24.1,-6.4,30.5,32.6,2.3,112
2013-11-05 14:00:14,24.2,-8.5,32.7,32.6,2.4,112
2013-11-05 14:05:14,23.9,-5.3,29.2,32.6,2.3,111
2013-11-05 14:10:14,23.7,-4.2,27.9,32.5,2.3,112
2013-11-05 14:15:14,24.1,-3.6,27.7,32.4,2.4,112
2013-11-05 14:20:14,24.4,-3.9,28.2,32.5,2.5,112
2013-11-05 14:25:14,24.3,-4.2,28.5,32.5,2.5,112
2013-11-05 14:30:14,24.2,-3.1,27.4,32.5,2.5,112
2013-11-05 14:35:14,24.3,-3.7,27.9,32.5,2.4,112
2013-11-05 14:40:14,24.1,-2.9,27.0,32.4,2.4,111
2013-11-05 14:45:14,23.9,-3.9,27.8,32.4,2.3,112
2013-11-05 14:50:14,23.8,-4.9,28.8,32.4,2.3,111
2013-11-05 14:55:14,23.7,-3.0,26.7,32.4,2.3,112
2013-11-05 15:30:01,13.8,-0.7,14.5,32.2,2.5,110
2013-11-05 15:35:01,15.9,-2.0,17.9,32.3,2.4,111
2013-11-05 15:40:01,16.7,-2.1,18.8,32.2,2.3,111
2013-11-05 15:45:01,17.7,-3.5,21.2,32.3,2.3,112
2013-11-05 15:50:01,20.4,-6.9,27.3,32.3,2.2,111
2013-11-05 15:55:01,21.3,-4.2,25.4,32.2,2.3,112
2013-11-05 16:00:01,21.6,-5.2,26.7,32.2,2.6,112
2013-11-05 16:05:01,21.7,-3.0,24.7,32.1,2.7,111
2013-11-05 16:10:01,21.8,-4.7,26.4,32.1,2.7,112
2013-11-05 16:15:01,21.8,-5.1,26.8,31.9,2.6,112
2013-11-05 16:20:01,21.7,-2.2,24.0,31.5,2.6,112
2013-11-05 16:25:02,21.7,-1.8,23.5,30.9,2.5,111
2013-11-05 16:30:02,21.7,-1.7,23.4,30.3,2.5,111
2013-11-05 16:35:02,21.7,-1.5,23.2,29.7,2.4,112
2013-11-05 16:40:02,21.2,-1.8,23.1,28.7,2.4,111
2013-11-05 16:45:02,21.6,-3.9,25.5,27.1,2.4,112
2013-11-05 16:50:02,21.6,-5.0,26.6,25.2,2.3,111
2013-11-05 16:55:02,21.6,-6.0,27.6,21.4,2.3,112
2013-11-05 17:00:02,21.6,-7.5,29.1,15.4,2.3,111
2013-11-05 17:05:02,21.5,-3.4,24.9,9.7,2.3,112
2013-11-05 17:10:02,21.6,0.1,21.5,4.4,2.4,111
2013-11-05 17:15:02,20.0,1.1,18.9,2.0,2.1,111
2013-11-05 17:20:02,18.0,0.2,17.8,1.1,2.2,111
2013-11-05 17:25:02,17.3,-0.4,17.6,0.7,2.3,112
2013-11-05 17:30:02,17.0,-0.7,17.7,0.4,2.3,112
2013-11-05 17:35:02,17.0,-1.3,18.3,0.3,2.5,111
2013-11-05 17:40:02,16.9,-1.7,18.6,0.2,2.7,112
2013-11-05 17:45:02,16.9,-1.3,18.2,0.2,2.7,112
2013-11-05 17:50:02,17.0,-2.4,19.4,0.1,2.7,112
2013-11-05 17:55:02,19.2,-1.8,21.0,0.1,2.3,111
2013-11-05 18:00:02,18.2,1.8,16.5,0.1,2.3,111
2013-11-05 18:05:02,17.3,1.0,16.3,0.1,2.3,111
2013-11-05 18:10:02,17.1,0.5,16.6,0.1,2.5,111
2013-11-05 18:15:02,18.0,-5.5,23.6,0.1,2.4,111
2013-11-05 18:20:02,20.3,-7.3,27.6,0.1,2.2,112
2013-11-05 18:25:02,21.0,-4.1,25.1,0.2,1.9,112
2013-11-05 18:30:02,21.1,-6.0,27.1,0.2,2.1,112
2013-11-05 18:35:02,20.7,-6.0,26.8,0.1,2.1,111
2013-11-05 18:40:02,21.2,-3.8,25.0,0.2,2.2,112
2013-11-05 18:45:02,21.3,-4.3,25.5,0.2,2.3,112
2013-11-05 18:50:02,21.3,-4.7,25.9,0.2,2.3,112
2013-11-05 18:55:02,21.2,-4.2,25.4,0.2,2.3,112
2013-11-05 19:00:02,21.3,-2.6,23.9,0.2,2.3,112
2013-11-05 19:05:02,20.8,-1.6,22.4,0.2,2.3,111
2013-11-05 19:10:02,21.2,0.2,20.9,0.2,2.2,112
2013-11-05 19:15:02,21.1,-0.5,21.6,0.2,2.2,111
2013-11-05 19:20:02,21.2,-0.3,21.5,0.2,2.2,113
2013-11-05 19:25:02,21.3,-1.2,22.5,0.2,2.2,111
2013-11-05 19:30:02,21.2,-4.0,25.2,0.1,2.2,112
2013-11-05 19:35:02,21.1,-2.8,23.9,0.1,2.2,112
2013-11-05 19:40:02,21.1,-3.0,24.1,0.1,2.2,112
2013-11-05 19:45:02,21.1,-2.3,23.4,0.1,2.2,111
2013-11-05 19:50:02,21.1,-2.3,23.4,0.2,2.2,112
2013-11-05 19:55:02,21.2,-1.4,22.6,0.2,2.2,112
2013-11-05 20:00:02,21.2,0.1,21.1,0.2,2.2,111
2013-11-05 20:05:02,21.1,0.7,20.4,0.2,2.2,112
2013-11-05 20:10:02,19.7,1.1,18.7,0.2,2.1,111
2013-11-05 20:15:02,17.7,1.4,16.3,0.2,2.3,111
2013-11-05 20:20:02,17.1,1.2,15.9,0.2,2.3,111
2013-11-05 20:25:02,17.0,0.6,16.3,0.2,2.6,111
2013-11-05 20:30:02,16.9,0.0,16.8,0.2,2.7,112
2013-11-05 20:35:02,16.9,0.2,16.7,0.2,2.6,111
2013-11-05 20:40:02,16.8,0.6,16.2,0.2,2.4,111
2013-11-05 20:45:02,16.8,-0.0,16.8,0.2,2.4,111
2013-11-05 20:50:02,16.7,-0.3,17.1,0.2,2.4,113
2013-11-05 20:55:02,16.7,-0.2,16.9,0.2,2.4,112
2013-11-05 21:00:02,16.7,0.2,16.4,0.1,2.4,111
2013-11-05 21:05:02,16.7,1.0,15.6,0.1,2.3,111
2013-11-05 21:10:02,16.7,0.3,16.4,0.1,2.3,111
2013-11-05 21:15:02,16.6,1.0,15.6,0.1,2.3,111
2013-11-05 21:20:02,16.6,1.2,15.4,0.1,2.3,111
2013-11-05 21:25:02,16.6,1.5,15.1,0.1,2.3,111
2013-11-05 21:30:02,16.7,1.7,14.9,0.1,2.3,111
2013-11-05 21:35:02,16.7,2.0,14.7,0.1,2.3,111
2013-11-05 21:40:02,16.6,1.4,15.2,0.1,2.3,111
2013-11-05 21:45:02,16.6,1.7,14.9,0.1,2.3,111
2013-11-05 21:50:02,16.6,1.4,15.2,0.1,2.3,111
2013-11-05 21:55:02,16.6,1.1,15.5,0.2,2.3,111
2013-11-05 22:00:02,16.6,1.0,15.5,0.1,2.3,111
2013-11-05 22:05:02,16.2,1.0,15.2,0.2,2.3,111
2013-11-05 22:10:02,16.5,1.2,15.3,0.2,2.3,111
2013-11-05 22:15:02,16.4,1.2,15.2,0.2,2.3,111
2013-11-05 22:20:02,16.4,1.3,15.1,0.2,2.2,111
2013-11-05 22:25:02,16.4,1.3,15.1,0.2,2.2,111
2013-11-05 22:30:02,16.4,1.3,15.0,0.1,2.2,111
2013-11-05 22:35:02,16.4,1.5,14.8,0.2,2.2,111
2013-11-05 22:40:02,16.4,1.7,14.6,0.2,2.2,111
2013-11-05 22:45:02,16.4,1.7,14.7,0.2,2.2,111
2013-11-05 22:50:02,16.4,1.9,14.5,0.2,2.2,111
2013-11-05 22:55:02,16.4,1.9,14.4,0.2,2.2,111
2013-11-05 23:00:02,16.4,2.0,14.4,0.2,2.2,111
2013-11-05 23:05:02,16.3,2.1,14.2,0.2,2.2,112
2013-11-05 23:10:02,16.3,1.9,14.4,0.2,2.6,111
2013-11-05 23:15:02,16.3,1.8,14.5,0.2,2.4,111
2013-11-05 23:20:02,16.3,1.0,15.3,0.2,2.2,111
2013-11-05 23:25:02,16.2,0.6,15.6,0.2,2.3,111
2013-11-05 23:30:02,16.0,1.3,14.7,0.1,2.3,111
2013-11-05 23:35:02,16.3,2.0,14.2,0.2,2.3,111
2013-11-05 23:40:02,16.3,2.5,13.7,0.1,2.2,111
2013-11-05 23:45:02,16.3,2.2,14.1,0.1,2.2,111
2013-11-05 23:50:02,16.3,2.3,14.0,0.1,2.2,111
2013-11-05 23:55:02,16.3,2.4,13.9,0.1,2.2,111
